Regional Weather Roundup
Issued by NWS

Home | Current Version | Previous Version | Graphics & Text | Print | Product List | Glossary On
Versions: 1 2 3 4 5 6 7 8 9 10 11 12 13 14 15 16 17 18 19 20 21 22 23 24 25 26 27 28 29 30 31 32 33 34 35 36 37 38 39 40 41 42 43 44 45 46 47 48 49 50
824
ASUS43 KDMX 081108
RWRIA

WEATHER ROUNDUP FOR IOWA
NATIONAL WEATHER SERVICE DES MOINES IA
500 AM CST MON FEB 08 2016

NOTE: "FAIR" INDICATES FEW OR NO CLOUDS BELOW 12,000 FEET WITH NO
SIGNIFICANT WEATHER AND/OR OBSTRUCTIONS TO VISIBILITY.

* - THESE STATIONS ARE NOT NWS STATIONS...THUS NOT UNDER NWS
QUALITY CONTROL.  THEY ALSO DO NOT REPORT WEATHER SUCH
AS PRECIPITATION OR FOG.

IAZ001>003-012>014-020>022-031>034-043>046-081200-
   NORTHWEST IOWA

CITY           SKY/WX    TMP DP  RH WIND       PRES   REMARKS
CARROLL *      FLURRIES  19  14  79 NW32G43   29.92R WCI   0
CHEROKEE *     LGT SNOW  19  16  86 N22G29    29.96R WCI   3
DENISON *      LGT SNOW  21  18  86 NW26G36   29.94R WCI   4
LE MARS *      FLURRIES  23  21  93 NW26G35   30.01R WCI   6
ORANGE CITY *    N/A     19  19 100 N17G29    29.97R WCI   4
SHELDON *      LGT SNOW  18  16  93 N33G43    29.94S VSB 3/4 WCI  -3
SIOUX CITY     FLURRIES  27  17  66 N38G46    30.01R WCI   9
SPENCER        LGT SNOW  16  10  77 NW32G40   29.91S WCI  -5
STORM LAKE *   LGT SNOW  18  14  86 NW39G47   29.91S WCI  -4
$$

IAZ055>058-069>071-079>083-090>094-081200-
   SOUTHWEST IOWA

CITY           SKY/WX    TMP DP  RH WIND       PRES   REMARKS
ATLANTIC *     LGT SNOW  23  19  86 NW23G36   29.95F WCI   7
AUDUBON *      FLURRIES  21  16  79 NW25G35   29.93S WCI   4
CLARINDA *     LGT SNOW  28  21  74 NW18G29   29.99F WCI  16
COUNCIL BLFS * CLOUDY    27  21  80 NW24G38   29.97S HAZE    WCI  12
CRESTON *      FLURRIES  23  14  68 NW29G45   29.92S WCI   6
HARLAN  *      LGT SNOW  23  21  93 N29G36    29.99S VSB 1   WCI   6
LAMONI         CLOUDY    22  13  68 NW25G32   29.91R WCI   5
RED OAK *      FLURRIES  27  21  80 NW20G29   29.98S WCI  13
SHENANDOAH *   CLOUDY    30  23  74 NW23G36   30.00S WCI  17
$$

IAZ047>049-059>061-072>074-084-081200-
   CENTRAL IOWA

CITY           SKY/WX    TMP DP  RH WIND       PRES   REMARKS
AMES           LGT SNOW  16  11  80 NW32G43   29.86F VSB 3/4 WCI  -5
ANKENY *       LGT SNOW  19  14  79 NW16G30   29.88R WCI   5
BOONE *        LGT SNOW  16  10  79 NW21G35   29.85S WCI  -2
CHARITON *     LGT SNOW  21  16  79 NW30G37   29.86S WCI   3
DES MOINES     LGT SNOW  20  12  71 N24G40    29.87S BLWGSNOWWCI   3
GRINNELL*      LGT SNOW  18  12  79 NW28G36   29.81S WCI  -1
KNOXVILLE *    LGT SNOW  21  12  68 NW31G45   29.83S WCI   3
MARSHALLTOWN   FLURRIES  16  11  80 NW24G33   29.81S WCI  -2
NEWTON *       LGT SNOW  18  14  86 NW25G39   29.83S WCI  -1
PELLA *        LGT SNOW  19  14  79 NW24G36   29.85R WCI   2
$$

IAZ004>006-015-016-023>025-035-036-081200-
   NORTH CENTRAL IOWA

CITY           SKY/WX    TMP DP  RH WIND       PRES   REMARKS
ALGONA *       SNOW      14  12  92 N24G38    29.85R VSB 1/4 WCI  -5
CLARION *      LGT SNOW  14   7  73 NW33G46   29.84R WCI  -8
ESTHERVILLE    FOG       13  10  88 NW38G48   29.89R VSB 1/4 WCI -10
FORT DODGE *   CLOUDY    16   7  67 NW23G33   29.88S WCI  -2
MASON CITY     LGT SNOW  12   8  84 NW29G39   29.81R VSB 1   WCI  -9
FOREST CITY *  LGT SNOW  14   9  79 NW23G37   29.81R WCI  -5
WEBSTER CITY * SNOW      14  12  92 NW35G44   29.84R VSB 1/4 WCI  -8
IOWA FALLS *   LGT SNOW  16  10  79 NW30G36   29.83R WCI  -4
$$

IAZ007>011-017>019-026>030-037>042-050>054-066-081200-
   NORTHEAST IOWA

CITY           SKY/WX    TMP DP  RH WIND       PRES   REMARKS
CEDAR RAPIDS   FLURRIES  18  13  80 NW24G32   29.75S WCI   0
CHARLES CITY * LGT SNOW  14  10  85 NW18G31   29.77R WCI  -3
CLINTON *      LGT SNOW  23  19  86 NW25      29.70R FOG     WCI   7
DECORAH *      FLURRIES  16  10  79 NW15G25   29.70R WCI   1
DUBUQUE        LGT SNOW  19  14  81 NW20      29.67F WCI   3
MONTICELLO *   CLOUDY    18  12  79 NW18G26   29.72S WCI   2
OELWEIN *      CLOUDY    16  12  86 NW22      29.74R HAZE    WCI  -2
WATERLOO       LGT SNOW  15   9  76 NW24G35   29.77R WCI  -4
$$

IAZ064-065-067-068-078-081200-
   EAST CENTRAL IOWA

CITY           SKY/WX    TMP DP  RH WIND       PRES   REMARKS
DAVENPORT      LGT SNOW  22  17  81 NW21G32   29.72S WCI   6
IOWA CITY      FLURRIES  20  13  74 NW20G28   29.78F WCI   4
MT. PLEASANT * LGT SNOW  25  19  80 NW17G26   29.79S WCI  11
MUSCATINE *    FLURRIES  23  16  74 NW21G29   29.78S WCI   8
QUAD CITIES    LGT SNOW  23  18  81 W17G29    29.73R WCI   9
$$

IAZ062-063-075>077-085>089-095>099-081200-
   SOUTHEAST IOWA

CITY           SKY/WX    TMP DP  RH WIND       PRES   REMARKS
BURLINGTON     LGT SNOW  24  19  81 NW17G30   29.77R WCI  11
FAIRFIELD *    LGT SNOW  23  16  74 NW25G32   29.79F WCI   7
FORT MADISON * LGT SNOW  23  21  93 NW22G31   29.79R WCI   8
KEOKUK *       LGT SNOW  27  23  86 NW20      29.79R WCI  13
OSKALOOSA *    LGT SNOW  21  18  86 NW22G30   29.82S WCI   5
CENTERVILLE *    N/A    N/A N/A N/A MISG        N/A
OTTUMWA        LGT SNOW  21  18  88 NW22G32   29.82S FOG     WCI   5
WASHINGTON *   LGT SNOW  21  19  93 NW21G31   29.80S WCI   6
$$

ABBREVIATIONS USED IN REMARKS
   TC - TEMPERATURES IN CELSIUS
  WCI - WIND CHILL INDEX
   HX - HEAT INDEX
  VSB - VISIBILITY
$$





USA.gov is the U.S. government's official web portal to all federal, state and local government web resources and services.